User: anonymous   Login
Location: Fort Wayne
(41.1310°N, 85.1290°W)
Time: 18:14:45
(UTC-05:00)
Language:

OAO 2 Rocket - Orbit

View from above orbital plane
View from above orbital plane
View from above satellite
View from above satellite

Ground track
Ground track

The orbit data is extracted from the following two-line orbital elements,

1 03598U 68110B   16037.81934389  .00000213  00000-0  53388-4 0  9990
2 03598  34.9929 259.8800 0049280 162.7745 197.4632 14.54176141494171
Epoch (UTC): 06 February 2016 19:39:51
Eccentricity: 0.0049280
inclination: 34.9929°
perigee height: 677 km
apogee height: 747 km
right ascension of ascending node: 259.8800°
argument of perigee: 162.7745°
revolutions per day: 14.54176141
mean anomaly at epoch: 197.4632°
orbit number at epoch: 49417

The dashed part of the orbit path shows where the satellite is in the earth's shadow,  

DLR